This is the latest recevied weather packets stored in our database for station/object N2RDT. If no packets are shown the sender has not sent any weather packets the latest 10 day(s).
| Time | Temp. | Humidity | Pressure | Rain* | Wind** | Luminosity | Snow |
|---|---|---|---|---|---|---|---|
| 1778021485 | 24.44° C | 45% | 1014.2 hPa | 0 mm | - | 63 W/m² | - |
| 1778021182 | 25° C | 44% | 1014.2 hPa | 0 mm | - | 50 W/m² | - |
| 1778020880 | 25° C | 43% | 1014.7 hPa | 0 mm | - | 70 W/m² | - |
| 1778020577 | 25.56° C | 42% | 1014.3 hPa | 0 mm | - | 92 W/m² | - |
| 1778020273 | 25.56° C | 41% | 1014.4 hPa | 0 mm | - | 190 W/m² | - |
| 1778019969 | 26.11° C | 40% | 1014.4 hPa | 0 mm | - | 212 W/m² | - |
| 1778019666 | 26.11° C | 40% | 1014.4 hPa | 0 mm | - | 246 W/m² | - |
| 1778019363 | 26.11° C | 40% | 1014.5 hPa | 0 mm | - | 278 W/m² | - |
| 1778019059 | 26.67° C | 40% | 1014.3 hPa | 0 mm | - | 297 W/m² | - |
| 1778018756 | 26.11° C | 40% | 1014.3 hPa | 0 mm | - | 277 W/m² | - |
| 1778018454 | 25.56° C | 42% | 1014.5 hPa | 0 mm | - | 291 W/m² | - |
| 1778018152 | 26.11° C | 40% | 1014.4 hPa | 0 mm | - | 202 W/m² | - |
| 1778017849 | 26.11° C | 41% | 1014.3 hPa | 0 mm | - | 356 W/m² | - |
| 1778017548 | 26.11° C | 41% | 1014.3 hPa | 0 mm | - | 381 W/m² | - |
| 1778017244 | 26.11° C | 41% | 1014.4 hPa | 0 mm | - | 303 W/m² | - |
| 1778016942 | 26.11° C | 41% | 1014.4 hPa | 0 mm | - | 262 W/m² | - |
| 1778016638 | 26.67° C | 40% | 1014.5 hPa | 0 mm | - | 388 W/m² | - |
| 1778016335 | 26.11° C | 41% | 1014.5 hPa | 0 mm | - | 527 W/m² | - |
| 1778016032 | 25.56° C | 40% | 1014.4 hPa | 0 mm | - | 355 W/m² | - |
| 1778015729 | 25.56° C | 39% | 1014.6 hPa | 0 mm | - | 152 W/m² | - |
| 1778015425 | 26.11° C | 39% | 1014.7 hPa | 0 mm | - | 182 W/m² | - |
| 1778015122 | 26.67° C | 39% | 1014.4 hPa | 0 mm | - | 228 W/m² | - |
| 1778014820 | 26.67° C | 38% | 1014.7 hPa | 0 mm | - | 522 W/m² | - |
| 1778014518 | 26.11° C | 39% | 1014.7 hPa | 0 mm | - | 500 W/m² | - |
| 1778014214 | 26.11° C | 39% | 1014.7 hPa | 0 mm | - | 525 W/m² | - |
* Rain latest hour (hover to see other rain measurements)
** Current wind speed in m/s (hover to see current wind gust speed)